Location: Gull Harbor
(47.1000°N, 122.9000°W)
Time: 03:46:33
(UTC-08:00)

BlueWalker 3 - Visible Passes

Search period start: 07 February 2026 00:00
Search period end: 17 February 2026 00:00
Orbit: 450 x 461 km, 53.2° (Epoch: 6 February)

Date Brightness Start Highest point End Pass type
(mag) Time Alt. Az. Time Alt. Az. Time Alt. Az.
7 Feb 2.2 18:26:01 10° WNW 18:29:31 59° SW 18:33:01 10° SE visible
8 Feb 4.7 19:29:08 10° WSW 19:30:46 13° SW 19:32:22 10° SSW visible
9 Feb 4.6 18:52:51 10° W 18:55:09 16° SW 18:57:27 10° S visible
10 Feb 4.4 18:16:47 10° W 18:19:31 21° SW 18:22:15 10° S visible
